• In Latvia
  • List of Countries
  • For 7 days
  • Water Temperature
  • Satellite Maps
  • Weather Map
  • Weather Widgets
  • user-avatar
    Login

    Hourly Weather Salzburg

    Today, 19 August, Saturday

    Time Temperature Precipitation Wind Pressure Humidity
    00:00 +12°C° 1.1 mm 2 mps 628 mmHg 96%
    01:00 +12°C° 0 mm 2 mps 629 mmHg 98%
    02:00 +12°C° 1.5 mm 2 mps 629 mmHg 98%
    03:00 +12°C° 1.5 mm 2 mps 629 mmHg 98%
    04:00 +11°C° 1.5 mm 1 mps 628 mmHg 98%
    05:00 +11°C° 1.7 mm 1 mps 628 mmHg 98%
    06:00 +11°C° 1.7 mm 1 mps 629 mmHg 98%
    07:00 +11°C° 1.7 mm 1 mps 629 mmHg 98%
    08:00 +11°C° 1.6 mm 1 mps 629 mmHg 97%
    09:00 +10°C° 1.6 mm 1 mps 629 mmHg 97%
    10:00 +10°C° 1.6 mm 1 mps 629 mmHg 97%
    11:00 +10°C° 1.7 mm 1 mps 629 mmHg 97%
    12:00 +10°C° 1.7 mm 1 mps 629 mmHg 96%
    13:00 +10°C° 1.7 mm 1 mps 629 mmHg 96%
    14:00 +9°C° 1.4 mm 1 mps 629 mmHg 96%
    15:00 +9°C° 1.4 mm 1 mps 629 mmHg 96%
    16:00 +9°C° 1.4 mm 1 mps 629 mmHg 96%
    17:00 +9°C° 2.3 mm 1 mps 629 mmHg 96%
    18:00 +8°C° 2.3 mm 1 mps 629 mmHg 97%
    19:00 +7°C° 2.3 mm 2 mps 629 mmHg 97%
    20:00 +7°C° 1 mm 2 mps 629 mmHg 97%
    21:00 +6°C° 1 mm 2 mps 629 mmHg 96%
    22:00 +6°C° 1 mm 2 mps 629 mmHg 96%
    23:00 +6°C° 0.1 mm 2 mps 629 mmHg 95%

    Tomorrow, 20 August, Sunday

    Time Temperature Precipitation Wind Pressure Humidity
    00:00 +7°C° 0.1 mm 1 mps 629 mmHg 95%
    01:00 +6°C° 0.1 mm 1 mps 629 mmHg 94%
    02:00 +6°C° 0 mm 1 mps 629 mmHg 95%
    03:00 +6°C° 0 mm 1 mps 628 mmHg 96%
    04:00 +5°C° 0 mm 1 mps 628 mmHg 96%
    05:00 +6°C° 0.2 mm 1 mps 629 mmHg 96%
    06:00 +7°C° 0.2 mm 1 mps 629 mmHg 96%
    07:00 +7°C° 0.2 mm 1 mps 629 mmHg 96%
    08:00 +8°C° 0.2 mm 1 mps 630 mmHg 92%
    09:00 +9°C° 0.2 mm 1 mps 630 mmHg 89%
    10:00 +9°C° 0.2 mm 1 mps 630 mmHg 86%
    11:00 +10°C° 0.2 mm 1 mps 631 mmHg 80%
    12:00 +10°C° 0.2 mm 2 mps 631 mmHg 74%
    13:00 +12°C° 0.2 mm 2 mps 631 mmHg 68%
    14:00 +12°C° 0.2 mm 2 mps 631 mmHg 67%
    15:00 +12°C° 0.2 mm 2 mps 631 mmHg 67%
    16:00 +12°C° 0.2 mm 2 mps 631 mmHg 67%
    17:00 +10°C° 0.1 mm 2 mps 631 mmHg 75%
    18:00 +8°C° 0.1 mm 2 mps 630 mmHg 83%
    19:00 +7°C° 0.1 mm 1 mps 630 mmHg 91%
    20:00 +7°C° 0 mm 1 mps 630 mmHg 92%
    21:00 +6°C° 0 mm 1 mps 630 mmHg 94%
    22:00 +6°C° 0 mm 1 mps 630 mmHg 95%
    23:00 +6°C° 0.1 mm 1 mps 630 mmHg 95%

    Day after tomorrow, 21 August, Monday

    Time Temperature Precipitation Wind Pressure Humidity
    00:00 +5°C° 0.1 mm 1 mps 630 mmHg 95%
    01:00 +5°C° 0.1 mm 1 mps 630 mmHg 95%
    02:00 +5°C° 0 mm 1 mps 630 mmHg 95%
    03:00 +4°C° 0 mm 1 mps 630 mmHg 96%
    04:00 +4°C° 0 mm 1 mps 630 mmHg 96%
    05:00 +5°C° 0 mm 1 mps 630 mmHg 93%
    06:00 +6°C° 0 mm 1 mps 630 mmHg 91%
    07:00 +6°C° 0 mm 1 mps 630 mmHg 88%
    08:00 +8°C° 0 mm 1 mps 631 mmHg 77%
    09:00 +9°C° 0 mm 2 mps 632 mmHg 67%
    10:00 +12°C° 0 mm 2 mps 632 mmHg 56%
    11:00 +13°C° 0 mm 2 mps 632 mmHg 52%
    12:00 +14°C° 0 mm 2 mps 632 mmHg 47%
    13:00 +15°C° 0 mm 2 mps 632 mmHg 43%
    14:00 +15°C° 0 mm 2 mps 632 mmHg 45%
    15:00 +15°C° 0 mm 2 mps 632 mmHg 47%
    16:00 +14°C° 0 mm 2 mps 631 mmHg 49%
    17:00 +12°C° 0 mm 2 mps 631 mmHg 61%
    18:00 +10°C° 0 mm 1 mps 630 mmHg 73%
    19:00 +8°C° 0 mm 1 mps 630 mmHg 85%
    20:00 +7°C° 0 mm 1 mps 630 mmHg 88%
    21:00 +6°C° 0 mm 1 mps 630 mmHg 91%
    22:00 +5°C° 0 mm 1 mps 630 mmHg 94%
    23:00 +5°C° 0 mm 1 mps 630 mmHg 94%

    22 August, Tuesday

    Time Temperature Precipitation Wind Pressure Humidity
    00:00 +5°C° 0 mm 1 mps 629 mmHg 94%
    01:00 +4°C° 0 mm 1 mps 629 mmHg 94%
    02:00 +4°C° 0 mm 1 mps 629 mmHg 92%
    03:00 +4°C° 0 mm 1 mps 629 mmHg 91%
    04:00 +4°C° 0 mm 1 mps 629 mmHg 90%
    05:00 +5°C° 0 mm 1 mps 629 mmHg 85%
    06:00 +6°C° 0 mm 1 mps 630 mmHg 80%
    07:00 +8°C° 0 mm 1 mps 630 mmHg 76%
    08:00 +10°C° 0 mm 1 mps 631 mmHg 66%
    09:00 +13°C° 0 mm 1 mps 632 mmHg 57%
    10:00 +15°C° 0 mm 1 mps 633 mmHg 47%
    11:00 +16°C° 0 mm 1 mps 632 mmHg 45%
    12:00 +18°C° 0 mm 1 mps 632 mmHg 44%
    13:00 +19°C° 0 mm 1 mps 632 mmHg 42%
    14:00 +18°C° 0 mm 1 mps 632 mmHg 45%
    15:00 +18°C° 0 mm 1 mps 631 mmHg 48%
    16:00 +18°C° 0 mm 1 mps 631 mmHg 51%
    17:00 +14°C° 0 mm 1 mps 630 mmHg 62%
    18:00 +12°C° 0 mm 1 mps 629 mmHg 74%
    19:00 +9°C° 0 mm 0 mps 628 mmHg 86%
    20:00 +9°C° 0 mm 1 mps 628 mmHg 87%
    21:00 +8°C° 0 mm 1 mps 628 mmHg 89%
    22:00 +8°C° 0 mm 1 mps 628 mmHg 90%
    23:00 +7°C° 0 mm 1 mps 628 mmHg 89%

    23 August, Wednesday

    Time Temperature Precipitation Wind Pressure Humidity
    00:00 +7°C° 0 mm 1 mps 628 mmHg 88%
    01:00 +7°C° 0 mm 1 mps 628 mmHg 87%
    02:00 +7°C° 0 mm 1 mps 628 mmHg 86%
    03:00 +7°C° 0 mm 1 mps 627 mmHg 84%
    04:00 +7°C° 0 mm 1 mps 627 mmHg 83%
    05:00 +8°C° 0 mm 1 mps 628 mmHg 78%
    06:00 +10°C° 0 mm 1 mps 628 mmHg 74%
    07:00 +11°C° 0 mm 1 mps 629 mmHg 69%
    08:00 +14°C° 0 mm 1 mps 630 mmHg 61%
    09:00 +16°C° 0 mm 1 mps 631 mmHg 53%
    10:00 +20°C° 0 mm 1 mps 632 mmHg 45%
    11:00 +21°C° 0 mm 1 mps 632 mmHg 43%
    12:00 +21°C° 0 mm 1 mps 632 mmHg 41%
    13:00 +22°C° 0 mm 1 mps 632 mmHg 39%
    14:00 +22°C° 0 mm 1 mps 632 mmHg 41%
    15:00 +22°C° 0 mm 1 mps 631 mmHg 43%
    16:00 +21°C° 0 mm 1 mps 631 mmHg 45%
    17:00 +19°C° 0 mm 1 mps 630 mmHg 57%
    18:00 +15°C° 0 mm 1 mps 630 mmHg 69%
    19:00 +11°C° 0 mm 0 mps 629 mmHg 80%
    20:00 +12°C° 0 mm 1 mps 629 mmHg 79%
    21:00 +11°C° 0 mm 1 mps 629 mmHg 78%
    22:00 +11°C° 0 mm 1 mps 629 mmHg 77%
    23:00 +10°C° 0 mm 1 mps 629 mmHg 76%

    24 August, Thursday

    Time Temperature Precipitation Wind Pressure Humidity
    00:00 +10°C° 0 mm 1 mps 629 mmHg 74%
    01:00 +9°C° 0 mm 2 mps 629 mmHg 72%
    02:00 +9°C° 0 mm 2 mps 629 mmHg 71%
    03:00 +9°C° 0 mm 2 mps 629 mmHg 71%
    04:00 +9°C° 0 mm 2 mps 629 mmHg 70%
    05:00 +11°C° 0 mm 1 mps 629 mmHg 69%
    06:00 +12°C° 0 mm 1 mps 630 mmHg 69%
    07:00 +13°C° 0 mm 1 mps 630 mmHg 68%
    08:00 +16°C° 0 mm 1 mps 631 mmHg 60%
    09:00 +20°C° 0 mm 1 mps 632 mmHg 52%
    10:00 +23°C° 0 mm 1 mps 633 mmHg 43%
    11:00 +23°C° 0 mm 1 mps 633 mmHg 44%
    12:00 +23°C° 0 mm 1 mps 633 mmHg 44%
    13:00 +24°C° 0 mm 2 mps 633 mmHg 44%
    14:00 +23°C° 0.4 mm 2 mps 632 mmHg 51%
    15:00 +21°C° 0.4 mm 1 mps 632 mmHg 59%
    16:00 +20°C° 0.4 mm 1 mps 631 mmHg 66%
    17:00 +19°C° 0.8 mm 1 mps 631 mmHg 74%
    18:00 +16°C° 0.8 mm 1 mps 630 mmHg 81%
    19:00 +13°C° 0.8 mm 0 mps 630 mmHg 89%
    20:00 +13°C° 0.2 mm 1 mps 630 mmHg 89%
    21:00 +13°C° 0.2 mm 1 mps 630 mmHg 90%
    22:00 +12°C° 0.2 mm 1 mps 630 mmHg 90%
    23:00 +12°C° 0 mm 1 mps 630 mmHg 90%
    Show more